Canby, MN

11:15 AM CST on December 04, 2016 (GMT -0600)
Canby

Weather History for KCNB - May, 2013

Change the Weather History Date:

Thursday, May 9, 2013

  Actual Average (KMML) Record (KMML)
Temperature  
Mean Temperature 54 °F -  
Max Temperature 63 °F 68 °F 95 °F (1987)
Min Temperature 46 °F 45 °F 30 °F (1966)
Degree Days  
Heating Degree Days 10    
Growing Degree Days 4 (Base 50)    
Moisture  
Dew Point 50 °F    
Average Humidity 87    
Maximum Humidity 97    
Minimum Humidity 74    
Precipitation  
Precipitation 0.12 in - - ()
Sea Level Pressure  
Sea Level Pressure 30.06 in    
Wind  
Wind Speed 6 mph (NNE)    
Max Wind Speed 16 mph    
Max Gust Speed 21 mph    
Visibility 8 miles    
Events Rain    
Averages and records for this station are not official NWS values.
T = Trace of Precipitation, MM = Missing Value Source: NWS Daily Summary

Daily Weather History Graph

Daily Weather History Graph

Search for Another Location

Airport or City:

Trip Planner

Search our weather history database for the weather conditions in past years. The results will help you decide how hot, cold, wet, or windy it might be!

Date:

Astronomy

May. 09, 2013 Rise Set
Actual Time 6:03 AM CDT 8:40 PM CDT
Civil Twilight 5:30 AM CDT 9:13 PM CDT
Nautical Twilight 4:48 AM CDT 9:55 PM CDT
Astronomical Twilight 4:01 AM CDT 10:43 PM CDT
Moon 5:50 AM CDT (5/9) 8:36 PM CDT (5/9)
Length of Visible Light 15h 42m
Length of Day
14h 36m
Waning Crescent, 0% of the Moon is Illuminated
May 9
Waning Crescent
May 9
New
May 17
First Quarter
May 24
Full
May 31
Last Quarter

Hourly Weather History & Observations

Time (CDT) Temp. Windchill Dew Point Humidity Pressure Visibility Wind Dir Wind Speed Gust Speed Precip Events Conditions
12:15 AM 55.6 °F - 54.5 °F 96% 30.03 in 4.0 mi Calm Calm - 0.02 in Rain Rain
12:35 AM 55.8 °F - 54.7 °F 96% 30.02 in 5.0 mi Calm Calm - 0.03 in Rain Light Rain
12:55 AM 55.4 °F - 54.1 °F 96% 30.02 in 7.0 mi Calm Calm - 0.04 in   Light Drizzle
1:15 AM 55.2 °F - 53.8 °F 95% 30.02 in 5.0 mi North 4.6 mph - N/A Rain Rain
1:35 AM 55.0 °F - 53.6 °F 95% 30.02 in 7.0 mi Calm Calm - N/A Rain Light Rain
1:55 AM 54.9 °F - 53.6 °F 96% 30.01 in 5.0 mi Calm Calm - 0.01 in Rain Light Rain
2:15 AM 54.9 °F - 53.6 °F 96% 30.01 in 5.0 mi Calm Calm - N/A Rain Light Rain
2:35 AM 54.7 °F - 53.6 °F 96% 30.01 in 5.0 mi Calm Calm - 0.01 in Rain Rain
2:54 AM 54.5 °F - 53.6 °F 97% 30.01 in 5.0 mi Calm Calm - 0.02 in Rain Rain
3:15 AM 54.5 °F - 53.6 °F 97% 30.01 in 4.0 mi North 4.6 mph - 0.01 in Rain Rain
3:35 AM 54.5 °F - 53.6 °F 97% 30.01 in 4.0 mi Calm Calm - 0.01 in Rain Light Rain
3:54 AM 54.5 °F - 53.4 °F 96% 30.01 in 7.0 mi Calm Calm - 0.02 in Rain Light Rain
4:15 AM 54.5 °F - 53.2 °F 96% 30.01 in 4.0 mi NNW 8.1 mph - N/A Rain Rain
4:35 AM 54.1 °F - 53.1 °F 96% 30.01 in 5.0 mi NNW 8.1 mph - 0.01 in   Drizzle
4:55 AM 54.0 °F - 52.9 °F 96% 30.01 in 4.0 mi NNW 10.4 mph - 0.01 in Rain Light Rain
5:15 AM 54.0 °F - 52.9 °F 96% 30.01 in 4.0 mi NNW 10.4 mph - N/A   Light Drizzle
5:34 AM 51.8 °F - 50.5 °F 95% 30.01 in 5.0 mi NNW 10.4 mph 16.1 mph N/A   Light Drizzle
5:55 AM 50.9 °F - 49.5 °F 95% 30.01 in 5.0 mi NW 10.4 mph - N/A   Light Drizzle
6:15 AM 50.4 °F - 48.7 °F 94% 30.02 in 5.0 mi NW 11.5 mph - N/A Rain Light Rain
6:35 AM 49.8 °F - 48.2 °F 94% 30.02 in 5.0 mi NW 10.4 mph - N/A   Overcast
6:54 AM 49.3 °F - 48.2 °F 96% 30.03 in 5.0 mi NW 11.5 mph - N/A Rain Light Rain
7:15 AM 48.6 °F - 47.3 °F 95% 30.03 in 5.0 mi NW 10.4 mph - N/A   Overcast
7:34 AM 48.2 °F - 46.9 °F 95% 30.04 in 3.0 mi NW 11.5 mph 16.1 mph N/A   Overcast
7:54 AM 47.7 °F - 46.4 °F 95% 30.04 in 5.0 mi NW 10.4 mph - N/A   Overcast
8:15 AM 46.9 °F - 45.7 °F 95% 30.05 in 4.0 mi NW 13.8 mph 18.4 mph N/A   Overcast
8:35 AM 46.6 °F - 45.3 °F 95% 30.06 in 3.0 mi NW 15.0 mph 20.7 mph N/A   Light Drizzle
8:55 AM 46.4 °F 42.4 °F 45.0 °F 95% 30.06 in 3.0 mi NW 8.1 mph 17.3 mph N/A   Drizzle
9:15 AM 46.4 °F 40.7 °F 45.0 °F 95% 30.07 in 2.5 mi NW 12.7 mph 18.4 mph 0.01 in Rain Light Rain
9:35 AM 46.4 °F 40.4 °F 45.0 °F 95% 30.07 in 2.0 mi NW 13.8 mph 19.6 mph 0.01 in Rain Rain
9:55 AM 46.8 °F - 44.8 °F 93% 30.07 in 10.0 mi NW 10.4 mph 16.1 mph 0.01 in   Overcast
10:34 AM 47.5 °F - 45.0 °F 91% 30.08 in 10.0 mi NW 9.2 mph - N/A   Overcast
10:55 AM 47.5 °F - 44.8 °F 90% 30.09 in 7.0 mi NNW 12.7 mph 19.6 mph N/A   Light Drizzle
11:15 AM 48.0 °F - 45.0 °F 89% 30.08 in 10.0 mi NNW 12.7 mph 18.4 mph N/A   Overcast
11:35 AM 48.7 °F - 45.3 °F 88% 30.09 in 10.0 mi NNW 12.7 mph - N/A   Overcast
12:15 PM 49.5 °F - 46.4 °F 89% 30.09 in 10.0 mi NNW 6.9 mph - N/A   Light Drizzle
12:35 PM 50.9 °F - 47.5 °F 88% 30.09 in 10.0 mi Calm Calm - N/A   Light Drizzle
12:55 PM 53.2 °F - 48.7 °F 85% 30.07 in 10.0 mi NNW 8.1 mph - N/A   Overcast
1:14 PM 56.1 °F - 50.5 °F 82% 30.07 in 10.0 mi Calm Calm - N/A   Overcast
1:35 PM 57.6 °F - 51.3 °F 79% 30.07 in 10.0 mi Calm Calm - N/A   Overcast
1:55 PM 61.0 °F - 53.8 °F 77% 30.06 in 10.0 mi North 8.1 mph - N/A   Overcast
2:15 PM 61.5 °F - 53.2 °F 74% 30.05 in 10.0 mi NE 10.4 mph 17.3 mph N/A   Mostly Cloudy
2:35 PM 60.8 °F - 52.9 °F 75% 30.05 in 10.0 mi NNE 6.9 mph - N/A   Overcast
2:54 PM 61.7 °F - 54.0 °F 76% 30.05 in 10.0 mi NE 12.7 mph 16.1 mph N/A   Overcast
3:15 PM 61.3 °F - 54.0 °F 77% 30.05 in 10.0 mi ENE 10.4 mph - N/A   Overcast
3:35 PM 61.3 °F - 53.8 °F 76% 30.05 in 10.0 mi ENE 6.9 mph - N/A   Overcast
3:54 PM 63.0 °F - 54.7 °F 74% 30.05 in 10.0 mi East 11.5 mph - N/A   Overcast
4:15 PM 62.1 °F - 54.1 °F 75% 30.05 in 10.0 mi ENE 12.7 mph - N/A   Overcast
4:35 PM 61.9 °F - 53.6 °F 74% 30.05 in 10.0 mi ENE 13.8 mph - N/A   Mostly Cloudy
4:55 PM 61.5 °F - 53.8 °F 76% 30.05 in 10.0 mi East 15.0 mph - N/A   Overcast
5:14 PM 59.9 °F - 53.6 °F 80% 30.05 in 10.0 mi ENE 13.8 mph - 0.01 in   Overcast
5:35 PM 60.4 °F - 53.8 °F 79% 30.05 in 10.0 mi ENE 11.5 mph - 0.01 in   Overcast
5:55 PM 59.5 °F - 53.1 °F 79% 30.05 in 10.0 mi ENE 12.7 mph 17.3 mph 0.01 in   Overcast
6:15 PM 59.0 °F - 52.9 °F 80% 30.06 in 10.0 mi ENE 9.2 mph - N/A   Overcast
6:34 PM 58.3 °F - 52.3 °F 81% 30.06 in 10.0 mi ENE 9.2 mph - N/A   Overcast
6:55 PM 57.6 °F - 52.0 °F 82% 30.07 in 10.0 mi East 11.5 mph - N/A   Overcast
7:15 PM 57.4 °F - 52.0 °F 82% 30.07 in 10.0 mi ENE 5.8 mph - N/A   Overcast
7:34 PM 57.2 °F - 51.1 °F 80% 30.08 in 10.0 mi ENE 4.6 mph - N/A   Overcast
7:55 PM 57.0 °F - 50.9 °F 80% 30.08 in 10.0 mi ENE 10.4 mph - N/A   Overcast
8:14 PM 56.3 °F - 49.3 °F 77% 30.09 in 10.0 mi ENE 6.9 mph - N/A   Overcast
8:35 PM 55.4 °F - 48.7 °F 78% 30.10 in 10.0 mi ENE 16.1 mph - N/A   Overcast
8:55 PM 54.5 °F - 48.0 °F 79% 30.10 in 10.0 mi ENE 16.1 mph 19.6 mph N/A   Overcast
9:15 PM 52.9 °F - 47.3 °F 81% 30.12 in 10.0 mi ENE 15.0 mph - N/A   Overcast
9:35 PM 51.6 °F - 46.2 °F 82% 30.13 in 10.0 mi ENE 12.7 mph - N/A   Overcast
9:55 PM 50.9 °F - 45.5 °F 82% 30.14 in 10.0 mi ENE 4.6 mph - N/A   Overcast
10:15 PM 50.4 °F - 44.8 °F 81% 30.14 in 10.0 mi ENE 11.5 mph - N/A   Overcast
10:55 PM 50.0 °F - 44.6 °F 82% 30.15 in 10.0 mi Calm Calm - N/A   Overcast
11:15 PM 49.5 °F - 43.7 °F 81% 30.15 in 10.0 mi ENE 8.1 mph 16.1 mph N/A   Overcast
11:35 PM 49.1 °F - 43.0 °F 79% 30.15 in 10.0 mi Calm Calm - N/A   Overcast